Weather History for Bentonville, AR

Change the Weather History Date:

Monday, December 10, 2012

  Actual Average Record
Temperature  
Mean Temperature 26 °F -  
Max Temperature 33 °F 48 °F 68 °F (1993)
Min Temperature 19 °F 27 °F 8 °F (1977)
Degree Days  
Heating Degree Days 39    
Moisture  
Dew Point 16 °F    
Average Humidity 65    
Maximum Humidity 86    
Minimum Humidity 52    
Precipitation  
Precipitation 0.00 in - - ()
Sea Level Pressure  
Sea Level Pressure 30.03 in    
Wind  
Wind Speed 9 mph (NW)    
Max Wind Speed 16 mph    
Max Gust Speed 20 mph    
Visibility 10 miles    
Events      
Averages and records for this station are not official NWS values.
T = Trace of Precipitation, MM = Missing Value Source: NWS Daily Summary

Daily Weather History Graph

Daily Weather History Graph

Search for Another Location

Airport:

Trip Planner

Search our weather history database for the weather conditions in past years. The results will help you decide how hot, cold, wet, or windy it might be!

Date:

Astronomy

Dec. 10, 2012 Rise Set
Actual Time 7:17 AM CST 5:01 PM CST
Civil Twilight 6:49 AM CST 5:30 PM CST
Nautical Twilight 6:17 AM CST 6:02 PM CST
Astronomical Twilight 5:45 AM CST 6:34 PM CST
Moon 4:05 AM CST (12/10) 2:49 PM CST (12/10)
Length of Visible Light 10h 41m
Length of Day
9h 44m
Waning Crescent, 10% of the Moon is Illuminated
Dec 10
Waning Crescent
Dec 13
New
Dec 19
First Quarter
Dec 28
Full
Jan 4
Last Quarter

Hourly Weather History & Observations

Time (CST) Temp. Windchill Dew Point Humidity Pressure Visibility Wind Dir Wind Speed Gust Speed Precip Events Conditions
12:16 AM 28.4 °F 19.7 °F 14.0 °F 55% 30.01 in 10.0 mi North 9.2 mph - N/A   Clear
12:35 AM 28.4 °F 19.7 °F 15.8 °F 59% 30.01 in 10.0 mi NNW 9.2 mph 18.4 mph N/A   Clear
12:55 AM 28.4 °F 18.0 °F 15.8 °F 59% 30.00 in 10.0 mi NNW 12.7 mph 16.1 mph N/A   Clear
1:35 AM 26.6 °F 16.2 °F 14.0 °F 59% 29.99 in 10.0 mi NNW 11.5 mph - N/A   Clear
1:55 AM 26.6 °F 15.7 °F 14.0 °F 59% 29.99 in 10.0 mi NNW 12.7 mph 18.4 mph N/A   Clear
2:15 AM 26.6 °F 18.2 °F 14.0 °F 59% 29.97 in 10.0 mi North 8.1 mph - N/A   Clear
2:55 AM 26.6 °F 16.2 °F 14.0 °F 59% 30.00 in 10.0 mi NNW 11.5 mph 18.4 mph N/A   Partly Cloudy
3:15 AM 26.6 °F 15.2 °F 14.0 °F 59% 29.98 in 10.0 mi North 13.8 mph 17.3 mph N/A   Partly Cloudy
3:55 AM 24.8 °F 15.3 °F 14.0 °F 64% 30.00 in 10.0 mi NNW 9.2 mph - N/A   Mostly Cloudy
4:15 AM 24.8 °F 14.0 °F 15.8 °F 69% 29.99 in 10.0 mi NNW 11.5 mph 16.1 mph N/A   Overcast
4:35 AM 24.8 °F 11.9 °F 14.0 °F 64% 29.99 in 10.0 mi NW 16.1 mph 19.6 mph N/A   Overcast
4:55 AM 24.8 °F 14.0 °F 14.0 °F 64% 29.99 in 10.0 mi NNW 11.5 mph - N/A   Overcast
4:56 AM 24.8 °F 14.0 °F 14.0 °F 64% 29.99 in 10.0 mi NNW 11.5 mph - N/A   Overcast
5:15 AM 24.8 °F 14.6 °F 14.0 °F 64% 30.00 in 10.0 mi NNW 10.4 mph - N/A   Mostly Cloudy
5:35 AM 24.8 °F 13.4 °F 14.0 °F 64% 30.00 in 10.0 mi NNW 12.7 mph 19.6 mph N/A   Overcast
5:55 AM 24.8 °F 14.6 °F 14.0 °F 64% 30.01 in 10.0 mi NNW 10.4 mph 16.1 mph N/A   Overcast
6:15 AM 24.8 °F 14.0 °F 14.0 °F 64% 30.03 in 10.0 mi NW 11.5 mph - N/A   Overcast
6:35 AM 24.8 °F 14.6 °F 12.2 °F 59% 30.04 in 10.0 mi NW 10.4 mph - N/A   Overcast
6:55 AM 24.8 °F 15.3 °F 12.2 °F 59% 30.04 in 10.0 mi NW 9.2 mph - N/A   Overcast
7:15 AM 24.8 °F 14.6 °F 14.0 °F 64% 30.05 in 10.0 mi NW 10.4 mph 18.4 mph N/A   Overcast
7:35 AM 24.8 °F 12.9 °F 14.0 °F 64% 30.06 in 10.0 mi NW 13.8 mph 19.6 mph N/A   Overcast
7:56 AM 24.8 °F 14.0 °F 14.0 °F 64% 30.06 in 10.0 mi NW 11.5 mph - N/A   Overcast
8:15 AM 24.8 °F 13.4 °F 12.2 °F 59% 30.06 in 10.0 mi NNW 12.7 mph - N/A   Overcast
8:35 AM 24.8 °F 15.3 °F 14.0 °F 64% 30.05 in 10.0 mi NW 9.2 mph - N/A   Overcast
8:56 AM 24.8 °F 16.1 °F 14.0 °F 64% 30.05 in 10.0 mi NNW 8.1 mph - N/A   Overcast
9:15 AM 24.8 °F 15.3 °F 15.8 °F 69% 30.05 in 10.0 mi NW 9.2 mph - N/A   Overcast
9:35 AM 24.8 °F 16.1 °F 15.8 °F 69% 30.05 in 10.0 mi NNW 8.1 mph - N/A   Overcast
10:15 AM 26.6 °F 17.5 °F 15.8 °F 64% 30.05 in 10.0 mi NW 9.2 mph - N/A   Overcast
10:35 AM 26.6 °F 21.2 °F 15.8 °F 64% 30.04 in 10.0 mi NNW 4.6 mph - N/A   Overcast
10:55 AM 28.4 °F 19.7 °F 17.6 °F 64% 30.05 in 10.0 mi NW 9.2 mph - N/A   Overcast
11:16 AM 26.6 °F 18.2 °F 17.6 °F 69% 30.05 in 10.0 mi NW 8.1 mph - N/A   Mostly Cloudy
11:35 AM 28.4 °F 19.1 °F 17.6 °F 64% 30.05 in 10.0 mi NW 10.4 mph - N/A   Overcast
11:55 AM 28.4 °F 21.2 °F 17.6 °F 64% 30.05 in 10.0 mi NNW 6.9 mph - N/A   Mostly Cloudy
12:55 PM 30.2 °F 23.4 °F 19.4 °F 64% 30.01 in 10.0 mi North 6.9 mph - N/A   Partly Cloudy
1:15 PM 30.2 °F 21.9 °F 19.4 °F 64% 30.01 in 10.0 mi NNW 9.2 mph - N/A   Partly Cloudy
1:35 PM 32.0 °F 25.6 °F 19.4 °F 60% 30.01 in 10.0 mi NW 6.9 mph - N/A   Clear
1:55 PM 32.0 °F 24.8 °F 19.4 °F 60% 30.01 in 10.0 mi NW 8.1 mph - N/A   Clear
2:15 PM 33.8 °F 27.7 °F 17.6 °F 52% 30.00 in 10.0 mi North 6.9 mph - N/A   Clear
2:36 PM 33.8 °F 28.6 °F 17.6 °F 52% 30.01 in 10.0 mi NW 5.8 mph - N/A   Clear
2:55 PM 33.8 °F 27.0 °F 17.6 °F 52% 30.00 in 10.0 mi WNW 8.1 mph - N/A   Clear
3:15 PM 33.8 °F 29.6 °F 17.6 °F 52% 30.01 in 10.0 mi NW 4.6 mph - N/A   Clear
3:55 PM 33.8 °F 25.8 °F 17.6 °F 52% 30.01 in 10.0 mi WNW 10.4 mph - N/A   Clear
4:15 PM 32.0 °F 24.8 °F 17.6 °F 55% 30.00 in 10.0 mi WNW 8.1 mph - N/A   Clear
4:36 PM 32.0 °F 25.6 °F 17.6 °F 55% 30.00 in 10.0 mi WNW 6.9 mph - N/A   Clear
4:55 PM 30.2 °F 22.6 °F 17.6 °F 60% 30.01 in 10.0 mi WNW 8.1 mph - N/A   Clear
5:16 PM 28.4 °F 21.2 °F 17.6 °F 64% 30.01 in 10.0 mi WNW 6.9 mph - N/A   Clear
5:35 PM 28.4 °F 20.4 °F 17.6 °F 64% 30.02 in 10.0 mi WNW 8.1 mph - N/A   Clear
5:55 PM 28.4 °F 22.2 °F 17.6 °F 64% 30.03 in 10.0 mi WNW 5.8 mph - N/A   Clear
6:16 PM 26.6 °F 20.0 °F 17.6 °F 69% 30.03 in 10.0 mi WNW 5.8 mph - N/A   Clear
6:35 PM 26.6 °F 21.2 °F 17.6 °F 69% 30.04 in 10.0 mi WNW 4.6 mph - N/A   Clear
7:35 PM 24.8 °F - 15.8 °F 69% 30.04 in 10.0 mi Calm Calm - N/A   Clear
7:55 PM 24.8 °F 19.1 °F 15.8 °F 69% 30.03 in 10.0 mi SSE 4.6 mph - N/A   Clear
8:15 PM 21.2 °F - 17.6 °F 86% 30.03 in 10.0 mi Calm Calm - N/A   Clear
8:36 PM 23.0 °F - 15.8 °F 74% 30.04 in 10.0 mi Calm Calm - N/A   Clear
8:55 PM 23.0 °F - 17.6 °F 80% 30.05 in 10.0 mi Calm Calm - N/A   Clear
9:15 PM 21.2 °F - 15.8 °F 80% 30.05 in 10.0 mi Calm Calm - N/A   Clear
9:35 PM 23.0 °F - 17.6 °F 80% 30.05 in 10.0 mi Calm Calm - N/A   Clear
9:55 PM 21.2 °F - 17.6 °F 86% 30.05 in 10.0 mi Calm Calm - N/A   Clear
10:15 PM 21.2 °F - 15.8 °F 80% 30.05 in 10.0 mi Calm Calm - N/A   Clear
10:35 PM 21.2 °F - 17.6 °F 86% 30.05 in 10.0 mi Calm Calm - N/A   Clear
11:15 PM 19.4 °F - 15.8 °F 86% 30.06 in 10.0 mi Calm Calm - N/A   Clear
11:35 PM 19.4 °F 14.3 °F 15.8 °F 86% 30.07 in 10.0 mi South 3.5 mph - N/A   Clear
11:56 PM 21.2 °F - 15.8 °F 80% 30.07 in 10.0 mi Calm Calm - N/A   Clear